COSMOS 1536

Last updated on Sun Apr 12 2026 00:02:16 GMT+0000 (Coordinated Universal Time)

1 14699U 84013A 26101.41686483 .00006069 00000+0 24630-3 0 9993 2 14699 82.5425 75.2977 0014964 159.6646 200.5191 15.24304829277603
UTC large
Height (km)
Speed (km/s)
/
Latitude / Longitude
Inclination (degrees)
Orbital Period (minutes)
Azimuth
Elevation
Range (km)
Doppler Factor

Next 0 passes for location: London (51.5072 / 0.1276)

Sorry there are no passes over London.
COSMOS 1536